Weather History for Savannah, GA

Change the Weather History Date:

Thursday, March 7, 2013

  Actual Average Record
Temperature  
Mean Temperature 47 °F 57 °F  
Max Temperature 61 °F 69 °F 86 °F (1961)
Min Temperature 32 °F 46 °F 25 °F (1954)
Degree Days  
Heating Degree Days 18 8  
Month to date heating degree days 130 63  
Since 1 July heating degree days 1352 1580  
Cooling Degree Days 0 1  
Month to date cooling degree days 0 7  
Year to date cooling degree days 28 17  
Moisture  
Dew Point 30 °F    
Average Humidity 56    
Maximum Humidity 82    
Minimum Humidity 29    
Precipitation  
Precipitation 0.00 in 0.12 in 2.03 in (1944)
Month to date precipitation 0.04 0.83  
Year to date precipitation 10.34 7.31  
Snow  
Snow 0.00 in 0.00 in - ()
Month to date snowfall 0.0  
Since 1 July snowfall 0.0 0.3  
Snow Depth 0.00 in    
Sea Level Pressure  
Sea Level Pressure 30.20 in    
Wind  
Wind Speed 6 mph (NW)    
Max Wind Speed 14 mph    
Max Gust Speed 20 mph    
Visibility 10 miles    
Events      
T = Trace of Precipitation, MM = Missing Value Source: NWS Daily Summary

Daily Weather History Graph

Daily Weather History Graph

Search for Another Location

Airport:

Trip Planner

Search our weather history database for the weather conditions in past years. The results will help you decide how hot, cold, wet, or windy it might be!

Date:

Astronomy

Mar. 07, 2013 Rise Set
Actual Time 6:44 AM EST 6:27 PM EST
Civil Twilight 6:20 AM EST 6:51 PM EST
Nautical Twilight 5:51 AM EST 7:20 PM EST
Astronomical Twilight 5:23 AM EST 7:48 PM EST
Moon 3:30 AM EST (3/7) 2:25 PM EST (3/7)
Length of Visible Light 12h 31m
Length of Day
11h 42m
Waning Crescent, 20% of the Moon is Illuminated
Mar 7
Waning Crescent
Mar 11
New
Mar 19
First Quarter
Mar 27
Full
Apr 3
Last Quarter

Hourly Weather History & Observations

Time (EST) Temp. Windchill Dew Point Humidity Pressure Visibility Wind Dir Wind Speed Gust Speed Precip Events Conditions
12:53 AM 39.0 °F 31.4 °F 28.0 °F 65% 30.15 in 10.0 mi WNW 12.7 mph - N/A   Clear
1:53 AM 37.9 °F 31.5 °F 28.0 °F 68% 30.15 in 10.0 mi NNW 9.2 mph - N/A   Clear
2:53 AM 37.9 °F 31.5 °F 28.0 °F 68% 30.17 in 10.0 mi NNW 9.2 mph - N/A   Clear
3:53 AM 36.0 °F 31.1 °F 28.0 °F 73% 30.16 in 10.0 mi NNW 5.8 mph - N/A   Clear
4:53 AM 35.1 °F 31.0 °F 28.0 °F 76% 30.18 in 10.0 mi NNW 4.6 mph - N/A   Clear
5:53 AM 33.1 °F 28.7 °F 28.0 °F 82% 30.20 in 10.0 mi NW 4.6 mph - N/A   Clear
6:53 AM 32.0 °F 27.5 °F 27.0 °F 82% 30.23 in 10.0 mi WNW 4.6 mph - N/A   Clear
7:53 AM 37.0 °F 33.3 °F 28.9 °F 73% 30.26 in 10.0 mi NNW 4.6 mph - N/A   Clear
8:53 AM 43.0 °F 38.8 °F 28.0 °F 56% 30.26 in 10.0 mi North 6.9 mph - N/A   Scattered Clouds
9:53 AM 48.0 °F - 28.0 °F 46% 30.25 in 10.0 mi NNE 8.1 mph - N/A   Scattered Clouds
10:53 AM 51.1 °F - 28.9 °F 43% 30.25 in 10.0 mi NNE 4.6 mph - N/A   Scattered Clouds
11:53 AM 54.0 °F - 30.0 °F 40% 30.23 in 10.0 mi Variable 3.5 mph - N/A   Scattered Clouds
12:53 PM 55.9 °F - 30.0 °F 37% 30.21 in 10.0 mi SW 5.8 mph - N/A   Scattered Clouds
1:53 PM 57.9 °F - 30.0 °F 35% 30.18 in 10.0 mi West 11.5 mph - N/A   Mostly Cloudy
2:53 PM 60.1 °F - 30.0 °F 32% 30.16 in 10.0 mi West 6.9 mph - N/A   Mostly Cloudy
3:53 PM 60.1 °F - 28.9 °F 31% 30.16 in 10.0 mi Variable 6.9 mph - N/A   Mostly Cloudy
4:53 PM 60.1 °F - 30.0 °F 32% 30.15 in 10.0 mi WNW 10.4 mph - N/A   Scattered Clouds
5:53 PM 57.9 °F - 30.0 °F 35% 30.16 in 10.0 mi WNW 9.2 mph - N/A   Scattered Clouds
6:53 PM 51.1 °F - 30.9 °F 46% 30.19 in 10.0 mi Calm Calm - N/A   Partly Cloudy
7:53 PM 46.9 °F - 36.0 °F 66% 30.20 in 10.0 mi South 5.8 mph - N/A   Partly Cloudy
8:53 PM 46.9 °F - 37.0 °F 68% 30.22 in 10.0 mi Calm Calm - N/A   Partly Cloudy
9:53 PM 45.0 °F - 37.9 °F 76% 30.21 in 10.0 mi Calm Calm - N/A   Partly Cloudy
10:53 PM 44.1 °F - 37.9 °F 79% 30.21 in 10.0 mi Calm Calm - N/A   Partly Cloudy
11:53 PM 41.0 °F - 37.0 °F 86% 30.21 in 10.0 mi Calm Calm - N/A   Partly Cloudy